EW9688 Weather Reports


Display with metric or nautical units.
time (UTC)temp
F
wind
direction
speed
MPH
gust
MPH
rain 1hr
in
rain 24hr
in
rain mn
in
humidity
%
barometer
mb
20260902145821 0 147 4.0 7.0 0.00 0.04 0.00
20260902144826 72 182 2.0 3.0 0.00 0.04 0.00 42 1022.5
20260902143828 72 119 2.0 2.0 0.00 0.04 0.00 39 1022.5
20260902142826 72 167 3.0 3.0 0.00 0.04 0.00 40 1022.5
20260902141827 71 162 3.0 3.0 0.00 0.04 0.00 41 1022.6
20260902140826 69 190 1.0 1.0 0.00 0.04 0.00 44 1022.6
20260902135907 68 183 2.0 2.0 0.00 0.04 0.00 43 1022.6
20260902134826 68 188 2.0 2.0 0.00 0.04 0.00 44 1022.7
20260902133827 68 264 1.0 1.0 0.00 0.04 0.00 39 1022.6
20260902132847 67 311 1.0 2.0 0.00 0.04 0.00 40 1022.5
20260902131827 66 282 2.0 4.0 0.00 0.04 0.00 40 1022.5
20260902130837 64 294 2.0 2.0 0.00 0.04 0.00 41 1022.4
20260902125827 63 290 2.0 3.0 0.00 0.04 0.00 45 1022.4
20260902124828 63 214 1.0 2.0 0.00 0.04 0.00 44 1022.3
20260902123828 62 244 2.0 3.0 0.00 0.04 0.00 45 1022.3
20260902122828 61 236 1.0 2.0 0.00 0.04 0.00 50 1022.3
20260902121828 60 278 1.0 1.0 0.00 0.04 0.00 50 1022.2
20260902120828 60 240 1.0 2.0 0.00 0.04 0.00 51 1022.2
20260902115916 61 317 1.0 2.0 0.00 0.04 0.00 50 1022.1
20260902114836 60 212 1.0 2.0 0.00 0.04 0.00 54 1022.0
20260902113837 60 262 1.0 1.0 0.00 0.04 0.00 59 1022.0
20260902112856 60 335 2.0 3.0 0.00 0.04 0.00 56 1022.0
20260902111836 61 357 1.0 1.0 0.00 0.04 0.00 54 1022.0
20260902110856 61 222 1.0 2.0 0.00 0.04 0.00 55 1021.9
20260902105843 62 294 1.0 2.0 0.00 0.04 0.00 54 1022.0
20260902104823 62 259 1.0 1.0 0.00 0.04 0.00 55 1022.0
20260902103829 62 237 1.0 1.0 0.00 0.04 0.00 53 1022.0
20260902102824 63 242 1.0 1.0 0.00 0.04 0.00 53 1021.9
20260902101824 65 310 1.0 1.0 0.00 0.04 0.00 51 1021.8
20260902100831 65 0.0 0.0 0.00 0.04 0.00 47 1021.8
20260902095817 65 260 0.0 0.0 0.00 0.04 0.00 48 1021.9
20260902094817 65 0.0 0.0 0.00 0.04 0.00 50 1021.9
20260902093817 66 209 0.0 0.0 0.00 0.04 0.00 48 1021.8
20260902092858 65 246 0.0 0.0 0.00 0.04 0.00 49 1022.0
20260902091818 66 339 1.0 2.0 0.00 0.04 0.00 48 1022.0
20260902090818 66 310 2.0 2.0 0.00 0.04 0.00 48 1021.9
20260902085838 65 198 0.0 0.0 0.00 0.04 0.00 51 1021.9
20260902084838 64 175 1.0 2.0 0.00 0.04 0.00 50 1021.8
20260902083845 63 168 2.0 3.0 0.00 0.04 0.00 51 1021.9
20260902082825 64 196 2.0 2.0 0.00 0.04 0.00 51 1021.9
20260902081826 65 182 1.0 1.0 0.00 0.04 0.00 51 1021.9
20260902080826 66 214 0.0 0.0 0.00 0.04 0.00 49 1021.8
20260902075826 66 49 0.0 1.0 0.00 0.04 0.00 46 1021.8
20260902074826 66 1 1.0 1.0 0.00 0.04 0.00 46 1021.7
20260902073827 66 20 2.0 3.0 0.00 0.04 0.00 47 1021.7
20260902072826 67 333 2.0 3.0 0.00 0.04 0.00 46 1021.8
20260902071839 67 5 3.0 4.0 0.00 0.04 0.00 45 1021.8
20260902070826 68 284 2.0 3.0 0.00 0.05 0.00 44 1021.8
20260902065847 68 321 2.0 2.0 0.00 0.06 0.00 44 1021.8
20260902064827 68 324 2.0 2.0 0.00 0.07 0.00 45 1021.8
20260902063828 67 307 2.0 4.0 0.00 0.07 0.00 44 1021.8
20260902062827 66 181 1.0 1.0 0.00 0.07 0.00 47 1021.7
20260902061821 66 313 1.0 1.0 0.00 0.07 0.00 47 1021.8
20260902060822 65 309 1.0 2.0 0.00 0.07 0.00 50 1021.9
20260902055822 65 218 2.0 3.0 0.00 0.07 0.07 51 1022.0
20260902054822 65 239 1.0 2.0 0.00 0.07 0.07 51 1022.0
20260902053842 65 287 1.0 3.0 0.00 0.07 0.07 52 1022.0
20260902052822 65 235 1.0 3.0 0.00 0.07 0.07 53 1022.0
20260902051822 65 249 1.0 2.0 0.00 0.07 0.07 53 1022.1
20260902050842 66 298 2.0 3.0 0.00 0.07 0.07 53 1022.1
20260902045823 67 32 2.0 3.0 0.00 0.07 0.07 54 1022.2
20260902044823 67 345 3.0 4.0 0.00 0.07 0.07 51 1022.2
20260902043823 67 299 1.0 2.0 0.00 0.07 0.07 51 1022.3
20260902042823 67 330 0.0 0.0 0.01 0.07 0.07 52 1022.3
20260902041823 66 314 1.0 3.0 0.01 0.07 0.07 56 1022.4
20260902040844 67 245 1.0 1.0 0.01 0.07 0.07 58 1022.4
20260902035824 67 294 1.0 2.0 0.01 0.07 0.07 57 1022.4
20260902034844 68 284 2.0 3.0 0.01 0.07 0.07 61 1022.4
20260902033844 69 326 3.0 4.0 0.01 0.06 0.06 57 1022.5
20260902032824 69 237 1.0 2.0 0.00 0.06 0.06 54 1022.5
20260902031844 70 279 1.0 2.0 0.00 0.06 0.06 52 1022.4
20260902030825 71 24 2.0 3.0 0.00 0.06 0.06 51 1022.3
20260902025832 71 9 3.0 4.0 0.00 0.06 0.06 47 1022.3
20260902024832 71 261 1.0 1.0 0.00 0.07 0.06 45 1022.2
20260902023832 71 223 1.0 1.0 0.00 0.09 0.06 48 1022.0
20260902022837 70 177 2.0 3.0 0.01 0.09 0.06 49 1021.8
20260902021833 71 206 1.0 2.0 0.01 0.10 0.06 47 1021.6
20260902020832 71 242 1.0 1.0 0.01 0.11 0.06 50 1021.6
20260902015918 72 186 2.0 2.0 0.01 0.11 0.06 49 1021.4
20260902014849 74 6 2.0 3.0 0.01 0.11 0.06 43 1021.3
20260902013824 74 10 8.0 10.0 0.02 0.11 0.06 41 1021.6
20260902012827 74 272 1.0 1.0 0.02 0.10 0.05 42 1021.6
20260902011817 74 357 3.0 4.0 0.02 0.10 0.05 38 1021.5
20260902010827 75 320 2.0 3.0 0.02 0.10 0.05 44 1021.6
20260902005828 76 334 2.0 2.0 0.02 0.10 0.05 43 1021.5
20260902004827 77 8 3.0 4.0 0.02 0.10 0.05 43 1021.4
20260902003828 78 321 1.0 1.0 0.00 0.09 0.03 33 1021.1
20260902002827 78 255 0.0 0.0 0.00 0.09 0.03 34 1021.2
20260902001827 79 163 1.0 1.0 0.00 0.09 0.03 33 1021.3
20260902000828 79 186 2.0 2.0 0.00 0.09 0.03 34 1021.2
20260901235834 79 153 1.0 2.0 0.00 0.09 0.03 33 1021.2
20260901234835 79 165 2.0 2.0 0.00 0.09 0.03 34 1021.1
20260901233834 79 170 2.0 3.0 0.00 0.09 0.03 33 1021.1
20260901232835 80 160 4.0 6.0 0.00 0.09 0.03 34 1021.1
20260901231826 80 14 4.0 6.0 0.00 0.09 0.03 33 1021.1
20260901230828 80 355 0.0 0.0 0.00 0.09 0.03 33 1021.1
20260901225829 79 202 3.0 4.0 0.00 0.09 0.03 33 1021.1
20260901224829 79 178 2.0 2.0 0.00 0.09 0.03 33 1021.1
20260901223829 79 104 4.0 6.0 0.00 0.09 0.03 34 1021.1
20260901222820 80 117 5.0 6.0 0.00 0.09 0.03 34 1021.1
20260901221834 79 169 2.0 3.0 0.00 0.09 0.03 35 1021.3
20260901220829 80 177 3.0 4.0 0.00 0.09 0.03 35 1021.2
20260901215831 80 133 3.0 3.0 0.00 0.09 0.03 34 1021.3
20260901214830 81 150 3.0 4.0 0.00 0.09 0.03 36 1021.4
20260901213850 80 28 1.0 2.0 0.00 0.09 0.03 35 1021.6
20260901212821 78 16 4.0 7.0 0.00 0.09 0.03 39 1021.8
20260901211830 78 54 2.0 4.0 0.00 0.09 0.03 38 1021.8
20260901210821 79 27 5.0 7.0 0.00 0.09 0.03 37 1021.7
20260901205822 78 73 2.0 4.0 0.00 0.09 0.03 37 1021.9
20260901204830 78 147 2.0 2.0 0.00 0.09 0.03 36 1022.0
20260901203902 79 175 2.0 3.0 0.00 0.09 0.03 37 1021.9
20260901202828 80 130 3.0 5.0 0.00 0.09 0.03 36 1021.9
20260901201822 80 63 3.0 5.0 0.00 0.09 0.03 35 1021.9
20260901200836 80 126 4.0 5.0 0.00 0.08 0.03 36 1021.9
20260901195836 80 14 3.0 4.0 0.00 0.08 0.03 36 1021.9
20260901194822 79 117 5.0 6.0 0.00 0.08 0.03 37 1022.0
20260901193822 79 145 4.0 5.0 0.00 0.08 0.03 37 1022.1
20260901192823 79 154 4.0 5.0 0.00 0.08 0.03 38 1022.1
20260901191823 79 149 4.0 5.0 0.00 0.08 0.03 38 1022.2
20260901190817 78 110 3.0 6.0 0.00 0.08 0.03 39 1022.4
20260901185818 78 116 6.0 8.0 0.00 0.08 0.03 39 1022.5
20260901184818 78 111 5.0 7.0 0.00 0.08 0.03 39 1022.6
20260901183817 76 132 3.0 5.0 0.00 0.08 0.03 42 1022.8
20260901182838 76 93 5.0 8.0 0.00 0.08 0.03 44 1022.8
20260901181818 76 139 4.0 7.0 0.00 0.08 0.03 44 1022.8
20260901180819 76 132 2.0 6.0 0.00 0.08 0.03 43 1023.0
20260901175818 76 24 5.0 6.0 0.00 0.08 0.03 42 1023.1
20260901174818 76 30 6.0 9.0 0.00 0.08 0.03 45 1023.2
20260901173859 75 104 5.0 9.0 0.00 0.08 0.03 45 1023.2
20260901172818 75 106 6.0 10.0 0.00 0.08 0.03 44 1023.2
20260901171824 75 133 4.0 5.0 0.00 0.08 0.03 44 1023.2
20260901170819 74 131 4.0 7.0 0.00 0.08 0.03 46 1023.3
20260901165819 74 153 4.0 6.0 0.00 0.08 0.03 45 1023.4
20260901164820 73 118 4.0 6.0 0.00 0.08 0.03 48 1023.4
20260901163819 73 108 3.0 4.0 0.00 0.08 0.03 49 1023.5
20260901162819 72 126 3.0 4.0 0.00 0.08 0.03 53 1023.4
20260901161820 73 171 3.0 4.0 0.00 0.08 0.03 57 1023.4
20260901160820 74 29 4.0 5.0 0.00 0.08 0.03 48 1023.4
20260901155826 72 22 2.0 4.0 0.00 0.08 0.03 45 1023.4
20260901154846 71 7 3.0 5.0 0.00 0.08 0.03 46 1023.5
20260901153927 69 339 2.0 4.0 0.00 0.08 0.03 51 1023.6
20260901152826 67 260 2.0 3.0 0.00 0.08 0.03 56 1023.7
20260901151826 66 314 1.0 2.0 0.00 0.08 0.03 66 1023.7
20260901150827 67 246 2.0 4.0 0.00 0.08 0.03 55 1023.5